Time,TemperatureF,DewpointF,PressureIn,WindDirection,WindDirectionDegrees,WindSpeedMPH,WindSpeedGustMPH,Humidity,HourlyPrecipIn,Conditions,Clouds,dailyrainin,SoftwareType,DateUTC
2013-08-13 00:00:00,63.9,54.3,29.86,SSE,158,0.0,1.0,71,0.00,,---,0.00,VWS V14.01,2013-08-13 07:00:00,
2013-08-13 00:15:00,63.1,53.9,29.86,SSE,158,0.0,4.0,72,0.00,,---,0.00,VWS V14.01,2013-08-13 07:15:00,
2013-08-13 00:30:00,62.2,53.8,29.86,SE,135,1.0,5.0,74,0.00,,---,0.00,VWS V14.01,2013-08-13 07:30:00,
2013-08-13 00:45:00,61.4,53.8,29.86,SE,135,0.0,5.0,76,0.00,,---,0.00,VWS V14.01,2013-08-13 07:45:00,
2013-08-13 01:00:00,60.7,53.5,29.86,SE,135,1.0,5.0,77,0.00,,---,0.00,VWS V14.01,2013-08-13 08:00:00,
2013-08-13 01:15:00,60.2,53.3,29.86,ESE,112,2.0,6.0,78,0.00,,---,0.00,VWS V14.01,2013-08-13 08:15:00,
2013-08-13 01:30:00,59.6,53.1,29.86,ESE,112,2.0,7.0,79,0.00,,---,0.00,VWS V14.01,2013-08-13 08:30:00,
2013-08-13 01:45:00,59.0,53.2,29.86,East,90,2.0,6.0,81,0.00,,---,0.00,VWS V14.01,2013-08-13 08:45:00,
2013-08-13 02:00:00,58.5,53.0,29.86,East,90,2.0,5.0,82,0.00,,---,0.00,VWS V14.01,2013-08-13 09:00:00,
2013-08-13 02:15:00,57.9,52.5,29.86,East,90,1.0,5.0,82,0.00,,---,0.00,VWS V14.01,2013-08-13 09:15:00,
2013-08-13 02:30:00,57.4,52.3,29.87,East,90,2.0,6.0,83,0.00,,---,0.00,VWS V14.01,2013-08-13 09:30:00,
2013-08-13 02:45:00,57.1,52.3,29.87,East,90,2.0,5.0,84,0.00,,---,0.00,VWS V14.01,2013-08-13 09:45:00,
2013-08-13 03:00:00,56.9,52.1,29.87,East,90,1.0,5.0,84,0.00,,---,0.00,VWS V14.01,2013-08-13 10:00:00,
2013-08-13 03:15:00,56.7,51.9,29.87,East,90,1.0,4.0,84,0.00,,---,0.00,VWS V14.01,2013-08-13 10:15:00,
2013-08-13 03:30:00,56.5,52.0,29.88,East,90,0.0,1.0,85,0.00,,---,0.00,VWS V14.01,2013-08-13 10:30:00,
2013-08-13 03:45:00,56.4,52.3,29.88,East,90,0.0,2.0,86,0.00,,---,0.00,VWS V14.01,2013-08-13 10:45:00,
2013-08-13 04:00:00,56.2,52.1,29.88,East,90,0.0,0.0,86,0.00,,---,0.00,VWS V14.01,2013-08-13 11:00:00,
2013-08-13 04:15:00,56.0,51.9,29.88,East,90,0.0,0.0,86,0.00,,---,0.00,VWS V14.01,2013-08-13 11:15:00,
2013-08-13 04:30:00,55.8,51.7,29.87,East,90,0.0,0.0,86,0.00,,---,0.00,VWS V14.01,2013-08-13 11:30:00,
2013-08-13 04:45:00,55.6,51.8,29.88,East,90,0.0,0.0,87,0.00,,---,0.00,VWS V14.01,2013-08-13 11:45:00,
2013-08-13 05:00:00,55.3,51.5,29.87,East,90,0.0,0.0,87,0.00,,---,0.00,VWS V14.01,2013-08-13 12:00:00,
2013-08-13 05:15:00,55.0,51.2,29.87,East,90,0.0,0.0,87,0.00,,---,0.00,VWS V14.01,2013-08-13 12:15:00,
2013-08-13 05:30:00,54.8,51.3,29.87,East,90,0.0,2.0,88,0.00,,---,0.00,VWS V14.01,2013-08-13 12:30:00,
2013-08-13 05:45:00,54.6,51.1,29.88,East,90,0.0,0.0,88,0.00,,---,0.00,VWS V14.01,2013-08-13 12:45:00,
2013-08-13 06:00:00,54.5,51.0,29.89,East,90,0.0,0.0,88,0.00,,---,0.00,VWS V14.01,2013-08-13 13:00:00,
2013-08-13 06:15:00,54.3,51.1,29.89,East,90,0.0,0.0,89,0.00,,---,0.00,VWS V14.01,2013-08-13 13:15:00,
2013-08-13 06:30:00,54.3,51.1,29.89,East,90,0.0,0.0,89,0.00,,---,0.00,VWS V14.01,2013-08-13 13:30:00,
2013-08-13 06:45:00,54.6,51.7,29.90,East,90,0.0,0.0,90,0.00,,---,0.00,VWS V14.01,2013-08-13 13:45:00,
2013-08-13 07:00:00,55.1,52.5,29.90,East,90,0.0,3.0,91,0.00,,---,0.00,VWS V14.01,2013-08-13 14:00:00,
2013-08-13 07:15:00,54.3,51.1,29.89,East,90,0.0,0.0,89,0.00,,---,0.00,VWS V14.01,2013-08-13 14:15:00,
2013-08-13 07:24:00,55.9,53.3,29.91,East,79,0.0,0.0,91,0.00,,---,0.00,VWS V14.01,2013-08-13 14:24:00,
2013-08-13 07:29:00,56.1,53.5,29.91,ENE,76,0.0,4.0,91,0.00,,---,0.00,VWS V14.01,2013-08-13 14:29:00,
2013-08-13 07:30:00,56.3,53.7,29.91,ENE,69,1.0,4.0,91,0.00,,---,0.00,VWS V14.01,2013-08-13 14:30:00,
2013-08-13 07:34:00,56.4,53.8,29.92,ENE,69,0.0,1.0,91,0.00,,---,0.00,VWS V14.01,2013-08-13 14:34:00,
2013-08-13 07:39:00,56.7,54.1,29.92,ENE,63,0.0,4.0,91,0.00,,---,0.00,VWS V14.01,2013-08-13 14:39:00,
2013-08-13 07:44:00,57.0,54.1,29.92,ENE,63,0.0,4.0,90,0.00,,---,0.00,VWS V14.01,2013-08-13 14:44:00,
2013-08-13 07:45:00,57.1,54.2,29.92,ENE,64,0.0,4.0,90,0.00,,---,0.00,VWS V14.01,2013-08-13 14:45:00,
2013-08-13 07:49:00,57.3,54.4,29.92,ENE,63,0.0,2.0,90,0.00,,---,0.00,VWS V14.01,2013-08-13 14:49:00,
2013-08-13 07:54:00,57.6,54.7,29.92,ENE,63,1.0,2.0,90,0.00,,---,0.00,VWS V14.01,2013-08-13 14:54:00,
2013-08-13 07:59:00,57.9,54.7,29.93,ENE,59,0.0,4.0,89,0.00,,---,0.00,VWS V14.01,2013-08-13 14:59:00,
2013-08-13 08:00:00,58.1,54.9,29.92,ENE,59,0.0,4.0,89,0.00,,---,0.00,VWS V14.01,2013-08-13 15:00:00,
2013-08-13 08:04:00,58.2,55.0,29.92,ENE,59,1.0,2.0,89,0.00,,---,0.00,VWS V14.01,2013-08-13 15:04:00,
2013-08-13 08:09:00,58.5,55.0,29.93,ENE,59,0.0,2.0,88,0.00,,---,0.00,VWS V14.01,2013-08-13 15:09:00,
2013-08-13 08:14:00,58.9,55.4,29.93,NE,55,0.0,3.0,88,0.00,,---,0.00,VWS V14.01,2013-08-13 15:14:00,
2013-08-13 08:15:00,59.1,55.2,29.92,NE,43,3.0,4.0,87,0.00,,---,0.00,VWS V14.01,2013-08-13 15:15:00,
2013-08-13 08:19:00,59.3,55.4,29.92,NNE,24,0.0,4.0,87,0.00,,---,0.00,VWS V14.01,2013-08-13 15:19:00,
2013-08-13 08:23:00,59.7,55.5,29.92,NNE,21,1.0,4.0,86,0.00,,---,0.00,VWS V14.01,2013-08-13 15:23:00,
2013-08-13 08:28:00,60.1,55.6,29.93,North,355,2.0,5.0,85,0.00,,---,0.00,VWS V14.01,2013-08-13 15:28:00,
2013-08-13 08:30:00,60.3,55.5,29.93,North,355,0.0,5.0,84,0.00,,---,0.00,VWS V14.01,2013-08-13 15:30:00,
2013-08-13 08:33:00,60.5,55.7,29.93,North,355,1.0,6.0,84,0.00,,---,0.00,VWS V14.01,2013-08-13 15:33:00,
2013-08-13 08:38:00,60.9,55.7,29.93,North,355,0.0,6.0,83,0.00,,---,0.00,VWS V14.01,2013-08-13 15:38:00,
2013-08-13 08:43:00,61.4,55.9,29.93,NNW,342,4.0,6.0,82,0.00,,---,0.00,VWS V14.01,2013-08-13 15:43:00,
2013-08-13 08:45:00,61.6,55.7,29.93,NNW,341,4.0,6.0,81,0.00,,---,0.00,VWS V14.01,2013-08-13 15:45:00,
2013-08-13 08:48:00,61.8,55.6,29.93,NNW,340,5.0,7.0,80,0.00,,---,0.00,VWS V14.01,2013-08-13 15:48:00,
2013-08-13 08:53:00,62.3,56.1,29.93,NNW,335,8.0,9.0,80,0.00,,---,0.00,VWS V14.01,2013-08-13 15:53:00,
2013-08-13 08:58:00,62.8,55.8,29.93,NNW,336,4.0,9.0,78,0.00,,---,0.00,VWS V14.01,2013-08-13 15:58:00,
2013-08-13 09:00:00,63.1,56.1,29.93,NNW,336,5.0,9.0,78,0.00,,---,0.00,VWS V14.01,2013-08-13 16:00:00,
2013-08-13 09:03:00,63.3,56.0,29.93,NNW,338,2.0,8.0,77,0.00,,---,0.00,VWS V14.01,2013-08-13 16:03:00,
2013-08-13 09:08:00,63.9,56.6,29.93,NNW,338,0.0,8.0,77,0.00,,---,0.00,VWS V14.01,2013-08-13 16:08:00,
2013-08-13 09:13:00,64.4,56.3,29.93,NNW,339,1.0,8.0,75,0.00,,---,0.00,VWS V14.01,2013-08-13 16:13:00,
2013-08-13 09:15:00,64.7,56.6,29.93,NNW,339,5.0,8.0,75,0.00,,---,0.00,VWS V14.01,2013-08-13 16:15:00,
2013-08-13 09:18:00,65.1,56.6,29.92,NNW,339,5.0,7.0,74,0.00,,---,0.00,VWS V14.01,2013-08-13 16:18:00,
2013-08-13 09:23:00,65.6,56.3,29.92,NNW,338,7.0,8.0,72,0.00,,---,0.00,VWS V14.01,2013-08-13 16:23:00,
2013-08-13 09:28:00,66.3,57.0,29.93,NNW,338,1.0,8.0,72,0.00,,---,0.00,VWS V14.01,2013-08-13 16:28:00,
2013-08-13 09:30:00,66.8,57.1,29.92,NNW,338,2.0,8.0,71,0.00,,---,0.00,VWS V14.01,2013-08-13 16:30:00,
2013-08-13 09:33:00,67.1,57.4,29.92,NNW,338,0.0,2.0,71,0.00,,---,0.00,VWS V14.01,2013-08-13 16:33:00,
2013-08-13 09:38:00,68.0,57.5,29.93,NNW,338,4.0,5.0,69,0.00,,---,0.00,VWS V14.01,2013-08-13 16:38:00,
2013-08-13 09:43:00,69.2,58.2,29.92,NNW,338,0.0,7.0,68,0.00,,---,0.00,VWS V14.01,2013-08-13 16:43:00,
2013-08-13 09:45:00,69.8,57.9,29.93,NNW,338,0.0,7.0,66,0.00,,---,0.00,VWS V14.01,2013-08-13 16:45:00,
2013-08-13 09:48:00,70.4,58.1,29.92,NNW,338,1.0,2.0,65,0.00,,---,0.00,VWS V14.01,2013-08-13 16:48:00,
2013-08-13 09:53:00,71.5,58.3,29.92,NNW,338,0.0,2.0,63,0.00,,---,0.00,VWS V14.01,2013-08-13 16:53:00,
2013-08-13 09:58:00,72.6,58.8,29.92,NNW,338,0.0,4.0,62,0.00,,---,0.00,VWS V14.01,2013-08-13 16:58:00,
2013-08-13 10:00:00,73.3,58.6,29.92,NNW,338,0.0,4.0,60,0.00,,---,0.00,VWS V14.01,2013-08-13 17:00:00,
2013-08-13 10:03:00,73.7,58.0,29.92,NNW,338,1.0,2.0,58,0.00,,---,0.00,VWS V14.01,2013-08-13 17:03:00,
2013-08-13 10:08:00,74.8,58.6,29.92,NNW,338,1.0,2.0,57,0.00,,---,0.00,VWS V14.01,2013-08-13 17:08:00,
2013-08-13 10:13:00,75.8,58.5,29.92,NNW,338,0.0,2.0,55,0.00,,---,0.00,VWS V14.01,2013-08-13 17:13:00,
2013-08-13 10:15:00,76.5,58.6,29.92,NNW,338,0.0,2.0,54,0.00,,---,0.00,VWS V14.01,2013-08-13 17:15:00,
2013-08-13 10:18:00,76.9,58.0,29.92,NNW,338,0.0,1.0,52,0.00,,---,0.00,VWS V14.01,2013-08-13 17:18:00,
2013-08-13 10:23:00,77.7,56.5,29.92,NNW,338,0.0,1.0,48,0.00,,---,0.00,VWS V14.01,2013-08-13 17:23:00,
2013-08-13 10:28:00,78.6,57.3,29.92,NNW,346,0.0,2.0,48,0.00,,---,0.00,VWS V14.01,2013-08-13 17:28:00,
2013-08-13 10:30:00,79.2,57.8,29.92,NNW,344,5.0,6.0,48,0.00,,---,0.00,VWS V14.01,2013-08-13 17:30:00,
2013-08-13 10:33:00,79.6,57.6,29.92,NNW,343,5.0,6.0,47,0.00,,---,0.00,VWS V14.01,2013-08-13 17:33:00,
2013-08-13 10:38:00,80.4,57.8,29.92,NNW,342,1.0,7.0,46,0.00,,---,0.00,VWS V14.01,2013-08-13 17:38:00,
2013-08-13 10:43:00,81.1,57.8,29.92,NNW,342,0.0,7.0,45,0.00,,---,0.00,VWS V14.01,2013-08-13 17:43:00,
2013-08-13 10:45:00,81.4,57.4,29.92,NNW,342,1.0,7.0,44,0.00,,---,0.00,VWS V14.01,2013-08-13 17:45:00,
2013-08-13 10:48:00,81.6,58.2,29.92,NNW,342,0.0,2.0,45,0.00,,---,0.00,VWS V14.01,2013-08-13 17:48:00,
2013-08-13 10:53:00,82.2,56.8,29.92,NNW,343,0.0,2.0,42,0.00,,---,0.00,VWS V14.01,2013-08-13 17:53:00,
2013-08-13 10:58:00,82.7,56.6,29.92,NNW,343,0.0,5.0,41,0.00,,---,0.00,VWS V14.01,2013-08-13 17:58:00,
2013-08-13 11:00:00,82.9,56.1,29.92,NNW,342,0.0,5.0,40,0.00,,---,0.00,VWS V14.01,2013-08-13 18:00:00,
2013-08-13 11:03:00,83.1,57.7,29.92,NNW,342,0.0,1.0,42,0.00,,---,0.00,VWS V14.01,2013-08-13 18:03:00,
2013-08-13 11:08:00,83.6,56.8,29.92,NNW,346,1.0,8.0,40,0.00,,---,0.00,VWS V14.01,2013-08-13 18:08:00,
2013-08-13 11:13:00,84.0,57.1,29.92,NNW,347,0.0,8.0,40,0.00,,---,0.00,VWS V14.01,2013-08-13 18:13:00,
2013-08-13 11:15:00,84.3,57.4,29.92,NNW,347,0.0,8.0,40,0.00,,---,0.00,VWS V14.01,2013-08-13 18:15:00,
2013-08-13 11:18:00,84.4,56.0,29.92,North,351,6.0,7.0,38,0.00,,---,0.00,VWS V14.01,2013-08-13 18:18:00,
2013-08-13 11:23:00,84.9,56.5,29.91,North,351,0.0,7.0,38,0.00,,---,0.00,VWS V14.01,2013-08-13 18:23:00,
2013-08-13 11:28:00,85.3,56.8,29.91,North,351,0.0,7.0,38,0.00,,---,0.00,VWS V14.01,2013-08-13 18:28:00,
2013-08-13 11:30:00,85.6,56.4,29.91,North,351,0.0,7.0,37,0.00,,---,0.00,VWS V14.01,2013-08-13 18:30:00,
2013-08-13 11:33:00,85.8,56.5,29.91,North,351,0.0,4.0,37,0.00,,---,0.00,VWS V14.01,2013-08-13 18:33:00,
2013-08-13 11:38:00,86.4,57.1,29.91,North,355,2.0,7.0,37,0.00,,---,0.00,VWS V14.01,2013-08-13 18:38:00,
2013-08-13 11:43:00,86.7,56.6,29.91,North,355,0.0,7.0,36,0.00,,---,0.00,VWS V14.01,2013-08-13 18:43:00,
2013-08-13 11:45:00,86.9,58.3,29.91,North,355,0.0,7.0,38,0.00,,---,0.00,VWS V14.01,2013-08-13 18:45:00,
2013-08-13 11:48:00,87.1,58.4,29.91,North,355,1.0,1.0,38,0.00,,---,0.00,VWS V14.01,2013-08-13 18:48:00,
2013-08-13 11:53:00,87.4,56.4,29.91,North,355,1.0,2.0,35,0.00,,---,0.00,VWS V14.01,2013-08-13 18:53:00,
2013-08-13 11:58:00,87.7,55.9,29.91,North,355,0.0,2.0,34,0.00,,---,0.00,VWS V14.01,2013-08-13 18:58:00,
2013-08-13 12:00:00,87.9,57.6,29.91,North,355,0.0,2.0,36,0.00,,---,0.00,VWS V14.01,2013-08-13 19:00:00,
2013-08-13 12:03:00,88.0,57.7,29.91,NNW,338,5.0,8.0,36,0.00,,---,0.00,VWS V14.01,2013-08-13 19:03:00,
2013-08-13 12:08:00,88.4,58.1,29.91,NNW,338,0.0,8.0,36,0.00,,---,0.00,VWS V14.01,2013-08-13 19:08:00,
2013-08-13 12:13:00,88.9,56.1,29.90,NNW,331,5.0,8.0,33,0.00,,---,0.00,VWS V14.01,2013-08-13 19:13:00,
2013-08-13 12:15:00,89.2,55.5,29.90,NNW,327,1.0,8.0,32,0.00,,---,0.00,VWS V14.01,2013-08-13 19:15:00,
2013-08-13 12:18:00,89.3,56.5,29.90,NNW,327,1.0,7.0,33,0.00,,---,0.00,VWS V14.01,2013-08-13 19:18:00,
2013-08-13 12:23:00,89.7,56.0,29.90,NNW,346,0.0,7.0,32,0.00,,---,0.00,VWS V14.01,2013-08-13 19:23:00,
2013-08-13 12:28:00,90.1,55.4,29.90,NNW,333,1.0,7.0,31,0.00,,---,0.00,VWS V14.01,2013-08-13 19:28:00,
2013-08-13 12:30:00,90.4,56.6,29.90,NNW,334,0.0,7.0,32,0.00,,---,0.00,VWS V14.01,2013-08-13 19:30:00,
2013-08-13 12:33:00,90.6,56.7,29.90,NNW,334,0.0,1.0,32,0.00,,---,0.00,VWS V14.01,2013-08-13 19:33:00,
2013-08-13 12:38:00,90.9,57.0,29.89,NNW,337,4.0,5.0,32,0.00,,---,0.00,VWS V14.01,2013-08-13 19:38:00,
2013-08-13 12:43:00,91.2,56.4,29.89,NW,315,0.0,6.0,31,0.00,,---,0.00,VWS V14.01,2013-08-13 19:43:00,
2013-08-13 12:45:00,91.4,56.5,29.89,NW,315,2.0,6.0,31,0.00,,---,0.00,VWS V14.01,2013-08-13 19:45:00,
2013-08-13 12:48:00,91.5,55.7,29.89,NW,315,1.0,2.0,30,0.00,,---,0.00,VWS V14.01,2013-08-13 19:48:00,
2013-08-13 12:53:00,91.8,56.0,29.89,NW,315,1.0,5.0,30,0.00,,---,0.00,VWS V14.01,2013-08-13 19:53:00,
2013-08-13 12:58:00,92.2,55.4,29.89,ESE,105,2.0,6.0,29,0.00,,---,0.00,VWS V14.01,2013-08-13 19:58:00,
2013-08-13 13:00:00,92.4,55.6,29.89,SSW,200,4.0,6.0,29,0.00,,---,0.00,VWS V14.01,2013-08-13 20:00:00,
2013-08-13 13:03:00,92.5,55.7,29.89,SSW,213,0.0,4.0,29,0.00,,---,0.00,VWS V14.01,2013-08-13 20:03:00,
2013-08-13 13:08:00,92.5,54.7,29.89,SSW,213,2.0,4.0,28,0.00,,---,0.00,VWS V14.01,2013-08-13 20:08:00,
2013-08-13 13:13:00,92.1,54.3,29.88,SSW,210,0.0,4.0,28,0.00,,---,0.00,VWS V14.01,2013-08-13 20:13:00,
2013-08-13 13:15:00,92.0,54.3,29.88,South,176,0.0,4.0,28,0.00,,---,0.00,VWS V14.01,2013-08-13 20:15:00,
2013-08-13 13:18:00,92.2,53.4,29.88,South,176,0.0,1.0,27,0.00,,---,0.00,VWS V14.01,2013-08-13 20:18:00,
2013-08-13 13:23:00,92.7,55.8,29.88,South,173,1.0,4.0,29,0.00,,---,0.00,VWS V14.01,2013-08-13 20:23:00,
2013-08-13 13:28:00,93.2,53.2,29.87,South,172,0.0,4.0,26,0.00,,---,0.00,VWS V14.01,2013-08-13 20:28:00,
2013-08-13 13:30:00,93.3,52.3,29.87,South,172,0.0,4.0,25,0.00,,---,0.00,VWS V14.01,2013-08-13 20:30:00,
2013-08-13 13:33:00,93.3,56.3,29.87,South,171,0.0,1.0,29,0.00,,---,0.00,VWS V14.01,2013-08-13 20:33:00,
2013-08-13 13:38:00,93.6,53.6,29.87,South,177,1.0,5.0,26,0.00,,---,0.00,VWS V14.01,2013-08-13 20:38:00,
2013-08-13 13:43:00,94.0,56.0,29.87,South,184,1.0,5.0,28,0.00,,---,0.00,VWS V14.01,2013-08-13 20:43:00,
2013-08-13 13:45:00,94.2,58.0,29.87,SSW,211,0.0,5.0,30,0.00,,---,0.00,VWS V14.01,2013-08-13 20:45:00,
2013-08-13 13:48:00,94.4,57.3,29.87,SSW,211,2.0,2.0,29,0.00,,---,0.00,VWS V14.01,2013-08-13 20:48:00,
2013-08-13 13:53:00,94.8,55.6,29.87,SSW,213,1.0,2.0,27,0.00,,---,0.00,VWS V14.01,2013-08-13 20:53:00,
2013-08-13 13:58:00,95.4,51.8,29.87,WSW,254,0.0,5.0,23,0.00,,---,0.00,VWS V14.01,2013-08-13 20:58:00,
2013-08-13 14:00:00,95.6,53.1,29.86,WSW,254,0.0,5.0,24,0.00,,---,0.00,VWS V14.01,2013-08-13 21:00:00,
2013-08-13 14:03:00,95.7,54.3,29.87,WSW,254,1.0,1.0,25,0.00,,---,0.00,VWS V14.01,2013-08-13 21:03:00,
2013-08-13 14:08:00,96.2,53.6,29.86,WSW,254,3.0,3.0,24,0.00,,---,0.00,VWS V14.01,2013-08-13 21:08:00,
2013-08-13 14:13:00,96.4,54.9,29.86,WSW,255,1.0,3.0,25,0.00,,---,0.00,VWS V14.01,2013-08-13 21:13:00,
2013-08-13 14:15:00,96.6,56.1,29.86,WSW,242,0.0,5.0,26,0.00,,---,0.00,VWS V14.01,2013-08-13 21:15:00,
2013-08-13 14:18:00,96.7,57.2,29.86,WSW,242,0.0,1.0,27,0.00,,---,0.00,VWS V14.01,2013-08-13 21:18:00,
2013-08-13 14:22:00,97.0,53.1,29.86,SW,232,2.0,5.0,23,0.00,,---,0.00,VWS V14.01,2013-08-13 21:22:00,
2013-08-13 14:27:00,97.0,53.1,29.86,SW,220,0.0,5.0,23,0.00,,---,0.00,VWS V14.01,2013-08-13 21:27:00,
2013-08-13 14:30:00,96.9,54.2,29.86,SW,221,0.0,5.0,24,0.00,,---,0.00,VWS V14.01,2013-08-13 21:30:00,
2013-08-13 14:32:00,97.0,54.3,29.86,WSW,240,2.0,4.0,24,0.00,,---,0.00,VWS V14.01,2013-08-13 21:32:00,
2013-08-13 14:37:00,97.2,50.8,29.86,SSW,211,5.0,7.0,21,0.00,,---,0.00,VWS V14.01,2013-08-13 21:37:00,
2013-08-13 14:42:00,96.8,52.9,29.85,SSW,211,2.0,7.0,23,0.00,,---,0.00,VWS V14.01,2013-08-13 21:42:00,
2013-08-13 14:45:00,96.7,52.8,29.85,SW,216,2.0,7.0,23,0.00,,---,0.00,VWS V14.01,2013-08-13 21:45:00,
2013-08-13 14:47:00,96.7,52.8,29.85,SW,215,0.0,3.0,23,0.00,,---,0.00,VWS V14.01,2013-08-13 21:47:00,
2013-08-13 14:52:00,96.6,51.6,29.85,SW,215,3.0,3.0,22,0.00,,---,0.00,VWS V14.01,2013-08-13 21:52:00,
2013-08-13 14:57:00,96.7,52.8,29.85,SW,232,0.0,5.0,23,0.00,,---,0.00,VWS V14.01,2013-08-13 21:57:00,
2013-08-13 15:00:00,96.9,51.8,29.85,SW,226,0.0,5.0,22,0.00,,---,0.00,VWS V14.01,2013-08-13 22:00:00,
2013-08-13 15:02:00,97.1,53.2,29.85,SW,227,1.0,2.0,23,0.00,,---,0.00,VWS V14.01,2013-08-13 22:02:00,
2013-08-13 15:07:00,97.4,51.0,29.84,SW,227,0.0,2.0,21,0.00,,---,0.00,VWS V14.01,2013-08-13 22:07:00,
2013-08-13 15:12:00,97.4,53.4,29.84,SW,219,3.0,5.0,23,0.00,,---,0.00,VWS V14.01,2013-08-13 22:12:00,
2013-08-13 15:15:00,97.4,51.0,29.84,SW,221,2.0,5.0,21,0.00,,---,0.00,VWS V14.01,2013-08-13 22:15:00,
2013-08-13 15:17:00,97.5,49.7,29.84,SW,221,0.0,3.0,20,0.00,,---,0.00,VWS V14.01,2013-08-13 22:17:00,
2013-08-13 15:22:00,97.3,46.8,29.84,SW,219,0.0,4.0,18,0.00,,---,0.00,VWS V14.01,2013-08-13 22:22:00,
2013-08-13 15:27:00,97.3,50.9,29.83,SW,221,1.0,4.0,21,0.00,,---,0.00,VWS V14.01,2013-08-13 22:27:00,
2013-08-13 15:30:00,97.4,48.3,29.83,SW,221,1.0,4.0,19,0.00,,---,0.00,VWS V14.01,2013-08-13 22:30:00,
2013-08-13 15:32:00,97.4,49.7,29.83,SW,221,0.0,1.0,20,0.00,,---,0.00,VWS V14.01,2013-08-13 22:32:00,
2013-08-13 15:37:00,97.4,49.7,29.83,SSW,198,2.0,7.0,20,0.00,,---,0.00,VWS V14.01,2013-08-13 22:37:00,
2013-08-13 15:42:00,97.0,49.3,29.83,SSW,198,0.0,7.0,20,0.00,,---,0.00,VWS V14.01,2013-08-13 22:42:00,
2013-08-13 15:45:00,97.1,49.4,29.83,SSW,198,3.0,7.0,20,0.00,,---,0.00,VWS V14.01,2013-08-13 22:45:00,
2013-08-13 15:47:00,97.2,49.5,29.83,SSW,198,3.0,3.0,20,0.00,,---,0.00,VWS V14.01,2013-08-13 22:47:00,
2013-08-13 15:52:00,97.1,48.0,29.83,SSW,195,2.0,6.0,19,0.00,,---,0.00,VWS V14.01,2013-08-13 22:52:00,
2013-08-13 15:57:00,97.0,49.3,29.83,SSW,194,0.0,6.0,20,0.00,,---,0.00,VWS V14.01,2013-08-13 22:57:00,
2013-08-13 16:00:00,97.0,49.3,29.83,SSW,194,1.0,6.0,20,0.00,,---,0.00,VWS V14.01,2013-08-13 23:00:00,
2013-08-13 16:02:00,97.0,48.0,29.82,SSW,194,4.0,5.0,19,0.00,,---,0.00,VWS V14.01,2013-08-13 23:02:00,
2013-08-13 16:07:00,96.9,47.9,29.82,SSW,195,4.0,5.0,19,0.00,,---,0.00,VWS V14.01,2013-08-13 23:07:00,
2013-08-13 16:12:00,96.8,49.2,29.82,SSW,196,0.0,5.0,20,0.00,,---,0.00,VWS V14.01,2013-08-13 23:12:00,
2013-08-13 16:15:00,96.7,49.1,29.82,SSW,196,0.0,5.0,20,0.00,,---,0.00,VWS V14.01,2013-08-13 23:15:00,
2013-08-13 16:17:00,96.8,50.5,29.82,SSW,196,0.0,1.0,21,0.00,,---,0.00,VWS V14.01,2013-08-13 23:17:00,
2013-08-13 16:22:00,96.9,47.9,29.82,SSW,196,2.0,4.0,19,0.00,,---,0.00,VWS V14.01,2013-08-13 23:22:00,
2013-08-13 16:27:00,97.1,48.0,29.82,SSW,196,4.0,5.0,19,0.00,,---,0.00,VWS V14.01,2013-08-13 23:27:00,
2013-08-13 16:30:00,97.2,48.1,29.82,SSW,196,1.0,5.0,19,0.00,,---,0.00,VWS V14.01,2013-08-13 23:30:00,
2013-08-13 16:32:00,97.3,48.2,29.82,SSW,196,3.0,3.0,19,0.00,,---,0.00,VWS V14.01,2013-08-13 23:32:00,
2013-08-13 16:37:00,97.6,48.4,29.81,SSW,196,0.0,5.0,19,0.00,,---,0.00,VWS V14.01,2013-08-13 23:37:00,
2013-08-13 16:42:00,97.8,50.0,29.81,SSW,201,1.0,5.0,20,0.00,,---,0.00,VWS V14.01,2013-08-13 23:42:00,
2013-08-13 16:45:00,97.9,50.1,29.81,SSW,202,1.0,5.0,20,0.00,,---,0.00,VWS V14.01,2013-08-13 23:45:00,
2013-08-13 16:47:00,97.9,50.1,29.81,SSW,202,0.0,1.0,20,0.00,,---,0.00,VWS V14.01,2013-08-13 23:47:00,
2013-08-13 16:52:00,98.1,48.8,29.81,SSW,202,2.0,4.0,19,0.00,,---,0.00,VWS V14.01,2013-08-13 23:52:00,
2013-08-13 16:57:00,97.9,50.1,29.81,SSW,202,0.0,5.0,20,0.00,,---,0.00,VWS V14.01,2013-08-13 23:57:00,
2013-08-13 17:00:00,97.8,48.6,29.81,SSW,202,0.0,6.0,19,0.00,,---,0.00,VWS V14.01,2013-08-14 00:00:00,
2013-08-13 17:02:00,97.8,50.0,29.81,SSW,202,1.0,1.0,20,0.00,,---,0.00,VWS V14.01,2013-08-14 00:02:00,
2013-08-13 17:07:00,97.8,51.3,29.81,SSW,209,1.0,5.0,21,0.00,,---,0.00,VWS V14.01,2013-08-14 00:07:00,
2013-08-13 17:12:00,97.5,49.7,29.81,SSW,193,5.0,6.0,20,0.00,,---,0.00,VWS V14.01,2013-08-14 00:12:00,
2013-08-13 17:15:00,97.1,48.0,29.81,SSW,194,6.0,9.0,19,0.00,,---,0.00,VWS V14.01,2013-08-14 00:15:00,
2013-08-13 17:17:00,97.0,49.3,29.80,SSW,194,5.0,9.0,20,0.00,,---,0.00,VWS V14.01,2013-08-14 00:17:00,
2013-08-13 17:22:00,96.9,47.9,29.80,SSW,198,5.0,9.0,19,0.00,,---,0.00,VWS V14.01,2013-08-14 00:22:00,
2013-08-13 17:27:00,97.0,48.0,29.80,SSW,204,4.0,9.0,19,0.00,,---,0.00,VWS V14.01,2013-08-14 00:27:00,
2013-08-13 17:30:00,96.9,47.9,29.80,SSW,204,3.0,9.0,19,0.00,,---,0.00,VWS V14.01,2013-08-14 00:30:00,
2013-08-13 17:32:00,96.9,46.4,29.80,SSW,202,3.0,7.0,18,0.00,,---,0.00,VWS V14.01,2013-08-14 00:32:00,
2013-08-13 17:37:00,96.7,50.4,29.80,SSW,202,7.0,8.0,21,0.00,,---,0.00,VWS V14.01,2013-08-14 00:37:00,
2013-08-13 17:42:00,96.7,47.7,29.80,SSW,195,7.0,9.0,19,0.00,,---,0.00,VWS V14.01,2013-08-14 00:42:00,
2013-08-13 17:45:00,96.4,47.5,29.80,SSW,192,4.0,9.0,19,0.00,,---,0.00,VWS V14.01,2013-08-14 00:45:00,
2013-08-13 17:47:00,96.4,48.8,29.80,SSW,194,4.0,7.0,20,0.00,,---,0.00,VWS V14.01,2013-08-14 00:47:00,
2013-08-13 17:52:00,96.2,48.7,29.80,SSW,196,5.0,8.0,20,0.00,,---,0.00,VWS V14.01,2013-08-14 00:52:00,
2013-08-13 17:57:00,95.8,50.9,29.80,South,190,7.0,10.0,22,0.00,,---,0.00,VWS V14.01,2013-08-14 00:57:00,
2013-08-13 18:00:00,95.5,49.4,29.80,South,189,8.0,11.0,21,0.00,,---,0.00,VWS V14.01,2013-08-14 01:00:00,
2013-08-13 18:02:00,95.4,48.0,29.80,South,189,7.0,9.0,20,0.00,,---,0.00,VWS V14.01,2013-08-14 01:02:00,
2013-08-13 18:07:00,95.1,50.3,29.80,SSW,194,7.0,9.0,22,0.00,,---,0.00,VWS V14.01,2013-08-14 01:07:00,
2013-08-13 18:12:00,94.8,48.8,29.80,South,190,6.0,9.0,21,0.00,,---,0.00,VWS V14.01,2013-08-14 01:12:00,
2013-08-13 18:15:00,94.6,49.9,29.80,South,185,3.0,9.0,22,0.00,,---,0.00,VWS V14.01,2013-08-14 01:15:00,
2013-08-13 18:17:00,94.6,49.9,29.79,South,184,6.0,6.0,22,0.00,,---,0.00,VWS V14.01,2013-08-14 01:17:00,
2013-08-13 18:22:00,94.5,48.6,29.79,South,184,6.0,7.0,21,0.00,,---,0.00,VWS V14.01,2013-08-14 01:22:00,
2013-08-13 18:27:00,94.4,47.2,29.79,South,184,2.0,7.0,20,0.00,,---,0.00,VWS V14.01,2013-08-14 01:27:00,
2013-08-13 18:30:00,94.4,47.2,29.79,South,182,5.0,7.0,20,0.00,,---,0.00,VWS V14.01,2013-08-14 01:30:00,
2013-08-13 18:32:00,94.4,48.5,29.79,South,181,3.0,6.0,21,0.00,,---,0.00,VWS V14.01,2013-08-14 01:32:00,
2013-08-13 18:37:00,94.3,49.7,29.79,SSE,163,5.0,8.0,22,0.00,,---,0.00,VWS V14.01,2013-08-14 01:37:00,
2013-08-13 18:42:00,93.9,48.1,29.79,SSE,161,2.0,8.0,21,0.00,,---,0.00,VWS V14.01,2013-08-14 01:42:00,
2013-08-13 18:45:00,93.7,50.3,29.79,SSE,155,4.0,9.0,23,0.00,,---,0.00,VWS V14.01,2013-08-14 01:45:00,
2013-08-13 18:47:00,93.7,50.3,29.79,SSE,155,5.0,7.0,23,0.00,,---,0.00,VWS V14.01,2013-08-14 01:47:00,
2013-08-13 18:52:00,93.3,51.2,29.79,SSE,156,5.0,9.0,24,0.00,,---,0.00,VWS V14.01,2013-08-14 01:52:00,
2013-08-13 18:57:00,92.9,51.9,29.79,SSE,155,4.0,9.0,25,0.00,,---,0.00,VWS V14.01,2013-08-14 01:57:00,
2013-08-13 19:00:00,92.5,51.6,29.79,SSE,153,8.0,9.0,25,0.00,,---,0.00,VWS V14.01,2013-08-14 02:00:00,
2013-08-13 19:02:00,92.5,52.7,29.79,SSE,153,5.0,8.0,26,0.00,,---,0.00,VWS V14.01,2013-08-14 02:02:00,
2013-08-13 19:07:00,92.0,52.2,29.79,SSE,151,5.0,8.0,26,0.00,,---,0.00,VWS V14.01,2013-08-14 02:07:00,
2013-08-13 19:12:00,91.6,51.9,29.79,SSE,149,7.0,9.0,26,0.00,,---,0.00,VWS V14.01,2013-08-14 02:12:00,
2013-08-13 19:15:00,91.2,51.6,29.79,SSE,149,2.0,9.0,26,0.00,,---,0.00,VWS V14.01,2013-08-14 02:15:00,
2013-08-13 19:17:00,91.1,51.5,29.79,SSE,149,4.0,5.0,26,0.00,,---,0.00,VWS V14.01,2013-08-14 02:17:00,
2013-08-13 19:22:00,90.6,52.1,29.79,SSE,150,5.0,7.0,27,0.00,,---,0.00,VWS V14.01,2013-08-14 02:22:00,
2013-08-13 19:27:00,90.1,52.6,29.79,SSE,149,6.0,7.0,28,0.00,,---,0.00,VWS V14.01,2013-08-14 02:27:00,
2013-08-13 19:30:00,89.7,52.3,29.79,SSE,149,5.0,7.0,28,0.00,,---,0.00,VWS V14.01,2013-08-14 02:30:00,
2013-08-13 19:32:00,89.7,53.2,29.79,SSE,149,5.0,6.0,29,0.00,,---,0.00,VWS V14.01,2013-08-14 02:32:00,
2013-08-13 19:37:00,89.2,51.9,29.79,SSE,149,4.0,7.0,28,0.00,,---,0.00,VWS V14.01,2013-08-14 02:37:00,
2013-08-13 19:42:00,88.8,54.3,29.79,SE,144,5.0,7.0,31,0.00,,---,0.00,VWS V14.01,2013-08-14 02:42:00,
2013-08-13 19:45:00,88.4,55.7,29.79,SE,136,5.0,7.0,33,0.00,,---,0.00,VWS V14.01,2013-08-14 02:45:00,
2013-08-13 19:47:00,88.4,55.7,29.79,SE,136,6.0,7.0,33,0.00,,---,0.00,VWS V14.01,2013-08-14 02:47:00,
2013-08-13 19:52:00,87.8,55.2,29.79,SE,134,6.0,7.0,33,0.00,,---,0.00,VWS V14.01,2013-08-14 02:52:00,
2013-08-13 19:57:00,87.1,56.2,29.79,SE,128,8.0,11.0,35,0.00,,---,0.00,VWS V14.01,2013-08-14 02:57:00,
2013-08-13 20:00:00,86.5,56.4,29.79,SE,127,4.0,11.0,36,0.00,,---,0.00,VWS V14.01,2013-08-14 03:00:00,
2013-08-13 20:02:00,86.4,57.1,29.79,SE,127,5.0,5.0,37,0.00,,---,0.00,VWS V14.01,2013-08-14 03:02:00,
2013-08-13 20:07:00,85.8,56.5,29.79,ESE,123,6.0,8.0,37,0.00,,---,0.00,VWS V14.01,2013-08-14 03:07:00,
2013-08-13 20:12:00,85.1,56.7,29.79,SE,126,7.0,8.0,38,0.00,,---,0.00,VWS V14.01,2013-08-14 03:12:00,
2013-08-13 20:15:00,84.5,56.1,29.79,SE,127,4.0,8.0,38,0.00,,---,0.00,VWS V14.01,2013-08-14 03:15:00,
2013-08-13 20:17:00,84.4,56.0,29.80,SE,127,5.0,6.0,38,0.00,,---,0.00,VWS V14.01,2013-08-14 03:17:00,
2013-08-13 20:22:00,83.8,56.9,29.80,SE,127,4.0,6.0,40,0.00,,---,0.00,VWS V14.01,2013-08-14 03:22:00,
2013-08-13 20:27:00,83.3,57.2,29.80,SE,127,2.0,6.0,41,0.00,,---,0.00,VWS V14.01,2013-08-14 03:27:00,
2013-08-13 20:30:00,82.8,56.7,29.80,SE,127,1.0,6.0,41,0.00,,---,0.00,VWS V14.01,2013-08-14 03:30:00,
2013-08-13 20:32:00,82.7,56.6,29.80,SE,127,2.0,2.0,41,0.00,,---,0.00,VWS V14.01,2013-08-14 03:32:00,
2013-08-13 20:37:00,82.2,56.2,29.80,SE,127,1.0,4.0,41,0.00,,---,0.00,VWS V14.01,2013-08-14 03:37:00,
2013-08-13 20:42:00,81.6,55.6,29.80,SE,127,0.0,4.0,41,0.00,,---,0.00,VWS V14.01,2013-08-14 03:42:00,
2013-08-13 20:45:00,81.1,55.9,29.80,SE,127,0.0,4.0,42,0.00,,---,0.00,VWS V14.01,2013-08-14 03:45:00,
2013-08-13 20:46:00,81.1,56.5,29.80,SE,127,0.0,0.0,43,0.00,,---,0.00,VWS V14.01,2013-08-14 03:46:00,
2013-08-13 20:51:00,80.5,56.0,29.81,SE,127,0.0,0.0,43,0.00,,---,0.00,VWS V14.01,2013-08-14 03:51:00,
2013-08-13 20:56:00,80.0,56.2,29.80,SE,127,0.0,0.0,44,0.00,,---,0.00,VWS V14.01,2013-08-14 03:56:00,
2013-08-13 21:00:00,79.6,55.8,29.81,SE,127,0.0,0.0,44,0.00,,---,0.00,VWS V14.01,2013-08-14 04:00:00,
2013-08-13 21:01:00,79.6,55.8,29.81,SE,127,0.0,0.0,44,0.00,,---,0.00,VWS V14.01,2013-08-14 04:01:00,
2013-08-13 21:06:00,79.1,55.3,29.81,SE,127,0.0,0.0,44,0.00,,---,0.00,VWS V14.01,2013-08-14 04:06:00,
2013-08-13 21:11:00,78.7,55.6,29.81,SE,127,0.0,0.0,45,0.00,,---,0.00,VWS V14.01,2013-08-14 04:11:00,
2013-08-13 21:15:00,78.4,55.9,29.81,SE,127,0.0,0.0,46,0.00,,---,0.00,VWS V14.01,2013-08-14 04:15:00,
2013-08-13 21:16:00,78.4,55.9,29.81,SE,127,0.0,0.0,46,0.00,,---,0.00,VWS V14.01,2013-08-14 04:16:00,
2013-08-13 21:21:00,78.0,55.6,29.81,SE,127,0.0,0.0,46,0.00,,---,0.00,VWS V14.01,2013-08-14 04:21:00,
2013-08-13 21:26:00,77.7,55.9,29.81,SE,127,0.0,0.0,47,0.00,,---,0.00,VWS V14.01,2013-08-14 04:26:00,
2013-08-13 21:30:00,77.3,55.5,29.81,SE,127,0.0,0.0,47,0.00,,---,0.00,VWS V14.01,2013-08-14 04:30:00,
2013-08-13 21:31:00,77.3,55.5,29.81,SE,127,0.0,0.0,47,0.00,,---,0.00,VWS V14.01,2013-08-14 04:31:00,
2013-08-13 21:36:00,77.0,55.8,29.81,SE,127,0.0,0.0,48,0.00,,---,0.00,VWS V14.01,2013-08-14 04:36:00,
2013-08-13 21:41:00,76.6,54.9,29.81,SE,127,0.0,0.0,47,0.00,,---,0.00,VWS V14.01,2013-08-14 04:41:00,
2013-08-13 21:45:00,76.3,55.2,29.81,SE,127,0.0,0.0,48,0.00,,---,0.00,VWS V14.01,2013-08-14 04:45:00,
2013-08-13 21:46:00,76.3,55.2,29.81,SE,127,0.0,0.0,48,0.00,,---,0.00,VWS V14.01,2013-08-14 04:46:00,
2013-08-13 21:51:00,76.0,54.9,29.81,SE,127,0.0,0.0,48,0.00,,---,0.00,VWS V14.01,2013-08-14 04:51:00,
2013-08-13 21:56:00,75.7,55.2,29.81,SE,127,0.0,0.0,49,0.00,,---,0.00,VWS V14.01,2013-08-14 04:56:00,
2013-08-13 22:00:00,75.4,54.9,29.81,SE,127,0.0,0.0,49,0.00,,---,0.00,VWS V14.01,2013-08-14 05:00:00,
2013-08-13 22:01:00,75.4,54.9,29.81,SE,127,0.0,0.0,49,0.00,,---,0.00,VWS V14.01,2013-08-14 05:01:00,
2013-08-13 22:06:00,75.1,54.7,29.81,SE,127,0.0,0.0,49,0.00,,---,0.00,VWS V14.01,2013-08-14 05:06:00,
2013-08-13 22:11:00,74.8,54.9,29.81,SE,127,0.0,0.0,50,0.00,,---,0.00,VWS V14.01,2013-08-14 05:11:00,
2013-08-13 22:15:00,74.4,55.1,29.81,SE,127,0.0,0.0,51,0.00,,---,0.00,VWS V14.01,2013-08-14 05:15:00,
2013-08-13 22:16:00,74.5,55.2,29.81,SE,127,0.0,0.0,51,0.00,,---,0.00,VWS V14.01,2013-08-14 05:16:00,
2013-08-13 22:30:00,73.5,55.3,29.81,North,0,0.0,0.0,53,0.00,,---,0.00,VWS V14.01,2013-08-14 05:30:00,
2013-08-13 22:45:00,72.7,55.1,29.81,North,0,0.0,0.0,54,0.00,,---,0.00,VWS V14.01,2013-08-14 05:45:00,
2013-08-13 23:00:00,71.8,54.8,29.81,North,0,0.0,0.0,55,0.00,,---,0.00,VWS V14.01,2013-08-14 06:00:00,
2013-08-13 23:15:00,71.0,55.0,29.82,North,0,0.0,0.0,57,0.00,,---,0.00,VWS V14.01,2013-08-14 06:15:00,
2013-08-13 23:30:00,70.3,55.3,29.82,North,0,0.0,0.0,59,0.00,,---,0.00,VWS V14.01,2013-08-14 06:30:00,
2013-08-13 23:45:00,69.7,54.8,29.82,North,0,0.0,0.0,59,0.00,,---,0.00,VWS V14.01,2013-08-14 06:45:00,